Погода в Октябрьском

Россия / Пензенская область     52°52′12″N   46°29′23″E
темп.,
°C
ветер,
м/с
пор.,
м/с
влажн.,
%
обл.,
%
осадки,
мм/ч
давл.,
гПа
погр.,
м
4 декабря, сб
сб400:00+3ююз81794100 0.0 1013492
03:00+3ююз92077100 0.0 1012625
06:00+2ю102277100 0.0 1009637
09:00+3ююз91984100 0.4 1008731
12:00+4юз81496100 2.2 10081050
15:00+1з4893100 3.4 1011487
18:000з4886100 0.0 1012464
21:000з4879100 0.0 1013628
5 декабря, вс
вс500:00−1зсз4878100 0.0 1014580
03:00−2зсз3676100 0.0 1015533
06:00−2сз3572100 0.0 1016464
09:00−2ссз2368100 0.0 1017320
12:00−1с2260100 0.0 1017391
15:00−1ссв2360100 0.0 1018200
18:00−2св236522 0.0 101988
21:00−2всв246748 0.0 1020145
6 декабря, пн
пн600:00−3всв23705 0.0 102086
03:00−3св247285 0.0 102295
06:00−3всв2472100 0.0 1023138
09:00−3в2572100 0.0 1024217
12:00−2вюв3565100 0.0 1025344
15:00−2в367199 0.0 1025327
18:00−3в3780100 0.0 1027327
21:00−3вюв498224 0.0 1027369
7 декабря, вт
вт700:00−4вюв498694 0.0 1028302
03:00−5вюв4108492 0.0 1028309
06:00−5вюв51185100 0.0 1028356
09:00−4юв61378100 0.0 1028425
12:00−3юв7137157 0.0 1027436
15:00−3юв61384100 0.0 1026408
18:00−2юв71593100 0.6 1025419
21:00−1ююв71697100 1.0 1024454
8 декабря, ср
ср800:000ююв61597100 0.0 1023459
03:00+1ююв71697100 0.0 1022419
06:00+1ююв71697100 0.0 1022386
09:00+1ююв61498100 0.0 1022377
12:00+2ююв61497100 0.0 1022410
15:00+2ююв61398100 0.0 1021400
18:00+1юв61496100 0.0 1021358
21:000юв71592100 0.0 1021364